Location: Fenile
(46.0500°N, 9.5500°E)
Time: 06:37:38
(UTC+00:00)

Cosmos 1777 Rocket - Pass Details

Date: 03 March 2021
Orbit: 759 x 775 km, 74.0° (Epoch: 10 April)

Event Time Altitude Azimuth Distance (km) Brightness Sun altitude
Rises 18:27:59 0° 343° (NNW) 3,249 7.6 -14.1°
Reaches altitude 10° 18:30:31 10° 351° (N) 2,316 6.7 -14.5°
Maximum altitude 18:35:27 40° 61° (ENE) 1,115 4.5 -15.4°
Enters shadow 18:38:04 24° 115° (ESE) 1,543 5.0 -15.8°
